Showing default

COSMOS 2581, 62902

Orbit data source: Space-Track

COSMOS 2581, 62902 is a payload satellite owned by MO RF (CIS) in LEO that was launched on Wed, 05 Feb 2025 UTC via a SOYUZ-2-1V launch vehicle from the Plesetsk Missile And Space Complex (PKMTR). Payload-class satellites include a variety of spacecraft equipped with specific instruments for various scientific and technological missions. These include communications satellites like Starlink; space stations such as the ISS; scientific satellites like the Hubble; Earth observation satellites from companies like Planet Labs, Umbra, and HawkEye 360; GPS; miniature CubeSats for education and research; and military/defense satellites.

Loading next visibility...
Identifier
62902, 2025-026A
Orbit
LEO
Country
Flag of CISCIS
Related business
Manufacturer
VNIIEM
Mission
Operational Defense Imaging
Bus & Motor
EMKA, Unknown motor
Mass
~500 kg wet, 500 kg dry
Launch date (UTC)
2025-02-05 (8 months ago)
Launch vehicle
SOYUZ-2-1V
Launch site
Plesetsk Missile And Space Complex (PKMTR)
Object type
Payload
Rocket body
Debris
Shape & HBR
Cyl + 2 Pan, 1.3 m
Radar Cross Section
3.727 m², Large (>1 m²)

Expand to show TLE details & history
Last TLE update: 16 hours ago

TLE from 16 hours ago
0 COSMOS 2581
1 62902U 25026A   25290.73377926  .00002209  00000-0  20460-3 0  9994
2 62902  81.9954 321.7197 0011537 134.0850 226.1321 14.94047560 38003
Epoch: 2025-10-17T17:36Z
TLE epoch observation values (Epoch: 2025-10-17T17:36:38.528Z)
Latitude
Longitude
31.08426°
Altitude
593.941 km
Speed
7.56 km/s
True Right ascension
21h 26m 52s
True Declination
0° 00' 00"
Sunlit
Object was in full shadow at epoch
Visualization orbit readout
Latitude
Unknown
Longitude
Unknown
Altitude
Unknown
Speed
Unknown
Apparent Right ascension
Unknown
Apparent Declination
Unknown
Sunlit
N/A
Visualization observer readout
Local Sidereal Time
04:48:39
Azimuth
Unknown
Elevation
Unknown
Doppler factor
Unknown
Orbital elements
Apogee altitude
590.388 km
Perigee altitude
574.327 km
Semi-major axis
6,960.494 km
Eccentricity
0.00115
Inclination
81.9954°
RAAN
321.7197°
Arg. of periapsis
134.085°
True anomaly
226.03688°
Mean anomaly
226.1321°
Eccentric anomaly
226.08448°
Mean motion
3.73752 °/min
Orbital period
96.32 mins
BSTAR
0.0002046
Loading maneuver chart data...
Computing Atmospheric mass density...
Loading historical data...
Loading historical data...
Loading historical data...
Loading historical data...
Loading historical data...
Loading historical data...
Loading historical data...

Documentation

Showing up to 5 results
|